This is the latest recevied weather packets stored in our database for station/object DL6DJ-15. If no packets are shown the sender has not sent any weather packets the latest 10 day(s).
| Time | Temp. | Humidity | Pressure | Rain* | Wind** | Luminosity | Snow |
|---|---|---|---|---|---|---|---|
| 1777536372 | 17.22° C | 17% | 1030.4 hPa | - | - | - | - |
| 1777536072 | 18.33° C | 15% | 1030.4 hPa | - | - | - | - |
| 1777535771 | 17.22° C | 17% | 1030.4 hPa | - | - | - | - |
| 1777535471 | 17.78° C | 17% | 1030.4 hPa | - | - | - | - |
| 1777535171 | 16.67° C | 19% | 1030.4 hPa | - | - | - | - |
| 1777534870 | 16.11° C | 18% | 1030.4 hPa | - | - | - | - |
| 1777534570 | 16.11° C | 18% | 1030.4 hPa | - | - | - | - |
| 1777534269 | 16.67° C | 18% | 1030.4 hPa | - | - | - | - |
| 1777533969 | 16.11° C | 18% | 1030.5 hPa | - | - | - | - |
| 1777533669 | 15.56° C | 19% | 1030.6 hPa | - | - | - | - |
| 1777533368 | 15° C | 18% | 1030.6 hPa | - | - | - | - |
| 1777533068 | 15° C | 19% | 1030.7 hPa | - | - | - | - |
| 1777532768 | 15.56° C | 18% | 1030.7 hPa | - | - | - | - |
| 1777532467 | 16.67° C | 17% | 1030.7 hPa | - | - | - | - |
| 1777532167 | 17.22° C | 16% | 1030.6 hPa | - | - | - | - |
| 1777531866 | 17.78° C | 15% | 1030.5 hPa | - | - | - | - |
| 1777531566 | 17.22° C | 17% | 1030.6 hPa | - | - | - | - |
| 1777531266 | 16.67° C | 18% | 1030.6 hPa | - | - | - | - |
| 1777530965 | 15.56° C | 18% | 1030.7 hPa | - | - | - | - |
| 1777530665 | 17.22° C | 16% | 1030.7 hPa | - | - | - | - |
| 1777530364 | 17.22° C | 18% | 1030.7 hPa | - | - | - | - |
| 1777530064 | 16.67° C | 18% | 1030.8 hPa | - | - | - | - |
| 1777529764 | 15.56° C | 18% | 1030.7 hPa | - | - | - | - |
| 1777529463 | 15.56° C | 18% | 1030.5 hPa | - | - | - | - |
| 1777529163 | 17.22° C | 17% | 1030.7 hPa | - | - | - | - |
* Rain since midnight (hover to see other rain measurements)
** Current wind speed in m/s (hover to see current wind gust speed)